www.pogodaiklimat.ru

Погода и климат >> Архив погоды >> Россия >> Коми >> Ижма


ПОГОДА в Ижме

  • Прогноз погоды в Ижме
  • Монитор погоды в Ижме

АРХИВ ПОГОДЫ в Ижме

Время (UTC), дата Ветер
(напр.,м/с)
 
Видим.   Явления Облачность Т
(С)
Тd
(С)
f
(%)
Тe
(С)
Тes
(С)
Комфортность P
(гПа)
Po
(гПа)
Тmin
(С)
Tmax
(С)
R
(мм)
R24
(мм)
S
(см)
12 12.02 Ю 4 20 км слаб. снег 10/10 210 м
[Frnb]
-2.9 -4.2 91 -9 -9 1010.9 1005.8
15 12.02 Ю 5
{10}
20 км слаб. снег {метель} 10/10 210 м
[Frnb]
-2.4 -4.0 89 -9 -9 1010.7 1005.6 -2.4 0.0
18 12.02 Ю 4
{11}
20 км слаб. снег {метель} 10/5 300 м
[Frnb As op]
-3.1 -4.0 93 -9 -9 1010.3 1005.3
21 12.02 Ю 4 20 км слаб. снег 10/10 450 м
[Sc]
-3.1 -4.6 89 -9 -9 1009.6 1004.5
00 13.02 Ю 4 10 км слаб. снег 10/5 300 м
[Sc As op]
-3.3 -4.1 94 -10 -10 1008.3 1003.2
03 13.02 Ю 4 20 км слаб. снег 10/10 540 м
[Sc]
-2.8 -4.4 89 -9 -9 1006.7 1001.7 -3.4 0.9 67
06 13.02 Ю 4 20 км слаб. снег 10/10 450 м
[Sc]
-2.5 -4.5 86 -8 -8 1005.7 1000.7
09 13.02 Ю 5
{10}
20 км слаб. снег {метель} 10/10 480 м
[Sc]
-1.9 -4.4 83 -8 -8 1005.3 1000.3
12 13.02 ЮЗ 5 20 км слаб. снег {метель} 10/10 420 м
[Sc]
-1.4 -4.1 82 -8 -8 1005.2 1000.2
15 13.02 Ю 4
{10}
20 км слаб. снег {метель} 10/10 400 м
[Sc]
-1.4 -3.6 85 -7 -7 1005.3 1000.3 -1.4 0.2
18 13.02 Ю 4 20 км {снег, метель} 10/10 270 м
[Frnb]
-1.4 -3.5 86 -7 -7 1004.6 999.6
21 13.02 Ю 3 10 км слаб. снег 10/4 300 м
[Frnb As op]
-2.1 -3.0 94 -7 -7 1002.6 997.6
00 14.02 Ю 2 4000 м слаб. снег 10/0
[As op]
-3.0 -3.7 95 -7 -7 1000.2 995.2
03 14.02 Ю 1 4000 м снег 10/0
[As op]
-3.6 -4.1 96 -6 -6 998.9 993.9 -3.6 4 70
06 14.02 Ю 1 4000 м слаб. снег 10/0
[As op]
-3.7 -4.3 96 -6 -6 999.8 994.8 -3.9
09 14.02 С 4 4000 м слаб. снег 10/6 300 м
[Frnb As op]
-3.9 -4.8 93 -10 -10 1003.6 998.6
12 14.02 С 4 20 км слаб. снег {метель} 10/8 400 м
[Sc As op]
-7.4 -8.7 90 -14 -14 1007.9 1002.8
15 14.02 С 2 20 км {снег} 10/0
[Ac trans Ci fib]
-12.8 -14.4 88 -17 -17 1011.8 1006.5 -3.1 4
18 14.02 штиль 0 20 км {снег} 10/0
[Ac und]
-13.5 -15.2 87 -14 -14 1012.7 1007.4
21 14.02 ЮЗ 1 20 км 9/0
[Ac trans]
-17.3 -19.1 86 -20 -20 1012.1 1006.7
00 15.02 Ю 2 20 км 10/8 800 м
[Sc Ac und]
-14.7 -16.4 87 -20 -20 1011.0 1005.6
03 15.02 Ю 2 20 км ясно -17.6 -19.2 87 -23 -23 1008.7 1003.3 -17.9 70
06 15.02 Ю 3 20 км 8/0
[Ci]
-18.4 -20.5 83 -26 -25 1006.5 1001.1 -19.7
09 15.02 ЮВ 2 20 км слаб. снег 10/6 300 м
[Frnb As op]
-12.0 -13.7 87 -17 -16 1003.2 998.0
12 15.02 Ю 4 20 км слаб. снег 10/10 450 м
[Sc]
-10.2 -12.1 86 -17 -17 1000.8 995.6
15 15.02 Ю 4 20 км слаб. снег 10/10 420 м
[Sc]
-9.0 -10.8 87 -16 -16 999.0 993.9 -9.0 0.0
18 15.02 Ю 3 20 км слаб. снег 10/6 480 м
[Sc As op]
-8.3 -10.0 88 -14 -14 997.5 992.4
21 15.02 Ю 5 20 км {снег, метель} 10/0
[As op]
-8.1 -10.1 85 -16 -16 997.0 991.9
00 16.02 Ю 4 20 км слаб. снег {метель} 10/0
[As op]
-9.1 -10.9 87 -16 -16 996.8 991.7
03 16.02 Ю 4 10 км слаб. снег {метель} 10/8 630 м
[Sc As op]
-10.0 -12.1 85 -17 -17 997.2 992.1 -10.0 0.3 71
06 16.02 Ю 4 20 км слаб. снег {метель} 10/4 600 м
[Sc As op]
-10.0 -12.0 85 -17 -17 997.6 992.5 -10.1
09 16.02 Ю 3 20 км слаб. снег 10/10 700 м
[Sc]
-8.7 -11.1 83 -15 -15 997.9 992.8
12 16.02 ЮЗ 3 10 км слаб. снег 10/10 420 м
[Sc]
-8.6 -10.7 85 -14 -14 998.4 993.3
15 16.02 Ю 2 20 км слаб. снег 10/10 360 м
[Sc]
-8.0 -9.8 87 -12 -12 997.8 992.7 -8.0 0.6
18 16.02 Ю 2 20 км слаб. снег 10/10 450 м
[Sc]
-8.0 -9.2 91 -13 -13 996.1 991.1
21 16.02 Ю 2 20 км слаб. снег 10/5 300 м
[Sc As op]
-7.9 -8.9 93 -12 -12 994.7 989.7
00 17.02 Ю 3 20 км слаб. снег 10/0
[As op]
-7.9 -9.1 91 -14 -14 991.9 986.8
03 17.02 Ю 3 20 км слаб. снег 10/0
[As op]
-7.4 -8.7 90 -13 -13 988.5 983.5 -8.0 0.9 74
06 17.02 Ю 5 20 км слаб. снег 10/0
[Ac As]
-6.5 -8.3 87 -14 -14 985.4 980.4
09 17.02 ЮВ 6-10
{11}
20 км слаб. снег {метель} 10/0
[Ac As]
-5.5 -8.0 83 -13 -13 982.9 978.0
12 17.02 ЮВ 5-10
{11}
10 км слаб. снег {метель} 10/0
[Ac As]
-6.4 -8.8 83 -14 -14 981.3 976.3
15 17.02 ЮВ 3 10 км слаб. снег {метель} 10/0
[As op]
-7.2 -8.7 89 -13 -13 980.9 975.9 -5.5 1
18 17.02 ЮВ 2 10 км слаб. снег {метель} 10/0
[As op]
-7.1 -8.3 91 -12 -12 980.9 975.9
21 17.02 В 1 20 км слаб. снег 10/0
[As op]
-7.8 -8.9 92 -10 -10 982.1 977.1
00 18.02 С 2 4000 м слаб. снег 10/8 270 м
[Frnb As op]
-9.0 -10.0 92 -14 -14 984.6 979.6
03 18.02 С 4 4000 м слаб. снег 10/4 300 м
[Frnb As op]
-8.9 -10.2 90 -16 -16 988.3 983.2 -9.8 2 76
06 18.02 С 6-12
{13}
10 км слаб. снег {метель} 10/6 400 м
[Sc As op]
-10.1 -11.7 88 -19 -19 992.8 987.7 -10.2
09 18.02 С 5-11
{13}
10 км слаб. снег {метель} 10/0
[As op]
-10.0 -12.8 80 -18 -18 997.6 992.5
12 18.02 С 4
{12}
20 км позёмок {снег} 8/0
[Ac trans Ci fib]
-12.3 -17.1 67 -19 -19 1002.7 997.5
15 18.02 С 2
{11}
20 км {метель} ясно -15.9 -18.7 79 -21 -21 1007.0 1001.7 -8.8 1
18 18.02 штиль 0 20 км {метель} ясно -29.3 -32.2 76 -29 -29 1009.1 1003.5
21 18.02 Ю 2 20 км 1/0
[Ci fib]
-32.3 -35.9 70 -40 -40 опасность
обморожения
1009.6 1003.9
00 19.02 Ю 2 20 км ясно -28.6 -30.6 83 -36 -36 опасность
обморожения
1009.0 1003.4
03 19.02 Ю 2 20 км ясно -30.5 -33.2 77 -38 -38 опасность
обморожения
1008.0 1002.4 -33.0 73
06 19.02 Ю 3 20 км 4/0
[Ci fib]
-22.8 -25.2 81 -31 -30 опасность
обморожения
1006.1 1000.7

 

Местоположение метеостанции Ижма (Коми, Россия): широта 65.00 долгота 53.92 высота над уровнем моря 40 м.

В архиве по умолчанию представлена погода в Ижме за последнюю неделю. Архивные данные за месяц целиком и за предыдущие месяцы, начиная с января 2011 года, Вы можете получить, выбрав интересующий диапазон дат из раскрывающегося списка и нажав кнопку "Ввод!".


*Определитесь, кто Вы:
робот инопланетянин человек

Внимание! Время в таблицах - всемирное. Для получения местного времени необходимо прибавить поправку, которая равна 3 ч.

Смотрите также архив погоды в соседних городах и на ближайших метеорологических станциях:

Погода в Ираеле (Коми, Россия) (88 км)
Погода в Кедва-Воме (Коми, Россия) (88 км)
Погода в Усть-Цильме (Коми, Россия) (91 км)
Погода в Мутном Материке (Коми, Россия) (120 км)
Погода в Печоре (Коми, Россия) (150 км)
Погода в Окуневом Носу (Коми, Россия) (152 км)
Погода в Ухте (Коми, Россия) (161 км)
Погода в Усть-Усе (Коми, Россия) (175 км)
Погода в Усть-Щугоре (Коми, Россия) (194 км)
Погода в Усинске (Коми, Россия) (196 км)

Пояснения к столбцам:

Ветер - указаны скорость ветра в м/с - средняя за 10 мин, порывы в срок и между сроками (в фигурных скобках) и направление, откуда дует ветер: С - северный, СВ - северо-восточный, В - восточный, ЮВ - юго-восточный, Ю - южный, ЮЗ - юго-западный, З - западный, СЗ - северо-западный.
Видимость - горизонтальная дальность видимости в метрах или километрах. При видимости от 1 до 10 км при отсутствии осадков обычно наблюдается дымка, при ухудшении видимости до 1 км и менее - туман. В сухую погоду видимость может ухудшаться дымом, пылью или мглою.
Явления - указаны атмосферные явления, наблюдавшиеся в срок или в последний час перед сроком; фигурными скобками обозначены явления, наблюдавшиеся между сроками (за 1-3 часа до срока); квадратными скобками обозначены град или гололедные отложения с указанием их диаметра в мм.
Облачность - указаны через наклонную черту общая и нижняя облачность в баллах и высота нижней границы облаков в метрах; квадратными скобками обозначены формы облаков: Ci - перистые, Cs - перисто-слоистые, Cc - перисто-кучевые, Ac - высококучевые, As - высокослоистые, Sc - слоисто-кучевые, Ns - слоисто-дождевые, Cu - кучевые, Cb - кучево-дождевые. Подробнее классификацию облаков см. в Атласе облаков (PDF).
T - Температура воздуха - температура, измеренная на высоте 2 м над землей.
Td - Температура точки росы - температура, при понижении до которой содержащийся в воздухе водяной пар достигнет насыщения.
f - Относительная влажность воздуха - влажноcть воздуха, измеренная на высоте 2 м над землей.
Te - Эффективная температура - температура, которую ощущает одетый по сезону человек в тени. Характеристика душности погоды. При расчете учитывается влияние влажности воздуха и скорости ветра на теплоощущения человека.
Tes - Эффективная температура на солнце - температура, которую ощущает человек, с поправкой на солнечный нагрев. Характеристика знойности погоды. Зависит от высоты солнца над горизонтом, облачности и скорости ветра. Ночью, в пасмурную погоду, а также при ветре 12 м/с и более поправка равна нулю.
P - Атмосферное давление - приведенное к уровню моря атмосферное давление.
Po - Атмосферное давление - измеренное на уровне метеостанции атмосферное давление.
Tmin - Минимальная температура - минимум температуры воздуха на высоте 2 м над землей.
Tmax - Максимальная температура - максимум температуры воздуха на высоте 2 м над землей.
R - Количество осадков - Количество выпавших осадков за период времени, мм. При наведении курсора мыши на число - период времени, за который выпало указанное количество осадков.
R24 - Количество осадков - Количество выпавших осадков за 24 часа, мм.
S - Снежный покров - Высота снежного покрова, см. При наведении курсора мыши на число - состояние снежного покрова и степень покрытия местности в баллах.